Tracking 18852 objects as of 24-Nov-2017
HD Live streaming from Space Station
objects crossing your sky now

ATS 5

Track ATS 5 now!
ATS 5 is classified as:


NORAD ID: 4068
Int'l Code: 1969-069A
Perigee: 35,983.4 km
Apogee: 36,045.7 km
Inclination: 7.5 °
Period: 1,447.4 minutes
Semi major axis: 42385 km
RCS: 2.7988 m2 (large)
Launch date: August 12, 1969
Source: United States (US)
Launch site: AIR FORCE EASTERN TEST RANGE (AFETR)
aabbcc
Your satellite tracking list
Your tracking list is empty




NASA's NSSDC Master Catalog

Two Line Element Set (TLE):
1 04068U 69069A   17327.49788851 -.00000138  00000-0  00000+0 0  9990
2 04068   7.5440 302.9411 0007353 301.9325 278.5150  0.99489360103797
Source of the keplerian elements: AFSPC